loading
|

DELTA 1 DEB, 2518

Orbit data source: Space-Track

DELTA 1 DEB, 2518 is space debris in LEO originally from a launch on Sun, 02 Oct 1966 UTC launched from the Air Force Western Test Range (AFWTR). Debris objects in space refer to the collection of defunct objects orbiting the Earth. Examples of debris include non-operational satellites, rocket bodies, and fragments generated from explosions, collisions, or faulty payload assembly.

Loading next visibility...
Loading greatness...
DELTA 1 DEB details
Identifier
2518, 1966-087C
Orbit
LEO
Last TLE update23 hours ago
Origin
Flag of USGSFC (US)
ManufacturerUnknown
MissionSpacecraft
Bus & MotorUnknown bus, Unknown motor
Mass1 kg wet, 1 kg dry
Launch date (UTC)
1966-10-02 (58 years ago)
Launch vehicleUnknown
Launch site
Air Force Western Test Range (AFWTR)
Object type
Payload
Rocket body
Debris
Shape & HBRCyl + 1 Cable, 3.5 m
Radar Cross Section3.500 m², Small (<0.1 m²)

Expand to show TLE details & history

TLE from 23 hours ago
0 DELTA 1 DEB
1 02518U 66087C   24276.63537791 -.00000014  00000-0  17314-3 0  9990
2 02518 100.8029  59.6712 0080804 343.7817  27.3453 12.42681152630095
Epoch: 2024-10-02T15:14Z
Definitive object data (Epoch: 2024-10-02T15:14:56.651Z)
Latitude11.3071°
Longitude176.92751°
Altitude1,440.697 km
Speed7.168 km/s
True Right ascension03h 49m 58s
True Declination11° 14' 49"
Sunlit
Object was in full shadow at TLE epoch
Predictive object data (real-time)
Latitude-75.56166°
Longitude-132.53553°
Altitude1,492.413 km
Speed7.131 km/s
Apparent Right ascension20h 10m 54s
Apparent Declination-75° 43' 19"
Sunlit
Object is in daylight
Predictive observer data (real-time)
Local Sidereal Time07:47:31
Azimuth182.456° SSW
Elevation-54.098°
Doppler factor1
Orbital elements
Apogee1,556.361 km
Perigee1,429.161 km
Semi-major axis7,870.898 km
Eccentricity0.0080804
Inclination100.8029°
RAAN59.6712°
Arg. of periapsis343.7817°
True anomaly27.77448°
Mean anomaly27.3453°
Eccentric anomaly27.5595°
Mean motion3.10818 °/min
BSTAR0.00017314
Period115.82 mins
No data available
Loading...

DELTA 1 DEB Visibility forecast

Observer location: 39.9160978°, -105.1181434

DELTA 1 DEB is not visible in the next 10 days
Span
Click to sort rows by Start time (UTC) header in descending order
Start Az.
Max El. time (UTC)
Max El. Az.
Max El.
End time (UTC)
End Az.